Regional Weather Roundup
Issued by NWS

Home | Current Version | Previous Version | Text Only | Print | Product List | Glossary On
Versions: 1 2 3 4 5 6 7 8 9 10 11 12 13 14 15 16 17 18 19 20 21 22 23 24 25 26 27 28 29 30 31 32 33 34 35 36 37 38 39 40 41 42 43 44 45 46 47 48 49 50
000
ASUS45 KCYS 030210
RWRWY

WYOMING REGIONAL WEATHER ROUNDUP
NATIONAL WEATHER SERVICE CHEYENNE WY
800 PM MDT TUE SEP 02 2014

NOTE:  "FAIR" INDICATES FEW OR NO CLOUDS BELOW 12,000 FEET
WITH NO SIGNIFICANT WEATHER AND/OR OBSTRUCTIONS TO VISIBILITY.

WYZ001-030300-
YELLOWSTONE NATIONAL PARK

CITY           SKY/WX    TMP DP  RH WIND       PRES   REMARKS
LK YELLOWSTONE   N/A     53  31  42 CALM      30.07F
W YELLOWSTONE  NOT AVBL

$$
WYZ002>013-054>058-071-098>099-030300-
NORTHERN WYOMING

CITY           SKY/WX    TMP DP  RH WIND       PRES   REMARKS
JACKSON        CLEAR     63  30  29 SW8       29.97
CODY             N/A    N/A N/A N/A MISG        N/A
GREYBULL       CLEAR     76  36  23 SE3       29.72F
WORLAND        CLEAR     70  36  28 SE10      29.73F
SHERIDAN       CLEAR     66  47  50 SE3       29.75S
BUFFALO        CLEAR     63  43  48 W8        29.82F
GILLETTE       CLEAR     54  45  71 S7        29.79F
HULETT         FAIR      66  36  32 MISG      29.83
NEWCASTLE      FAIR      70  32  24 E7        29.83

$$
WYZ014>020-022>026-101>103-030300-
CENTRAL WYOMING

CITY           SKY/WX    TMP DP  RH WIND       PRES   REMARKS
BIG PINEY      CLEAR     56  38  50 W9        30.04S
PINEDALE       CLEAR     61  34  36 CALM      30.05R
DUBOIS         FAIR      63  28  27 W14       29.99R
LANDER         CLEAR     72  29  20 SW9       29.85S
RIVERTON       CLEAR     73  26  17 W6        29.86S
CASPER         CLEAR     69  31  24 SW9       29.88R
DOUGLAS        CLEAR     70  38  31 W9        29.87S

$$
WYZ021-027>030-104>119-030300-
SOUTHERN WYOMING

CITY           SKY/WX    TMP DP  RH WIND       PRES   REMARKS
EVANSTON       CLEAR     68  36  30 W8        30.06F
KEMMERER       CLEAR     64  30  27 W10       30.07S
FORT BRIDGER   FAIR      71  33  24 W9        30.08S
ROCK SPRINGS   CLEAR     72  29  20 W21G29    30.01S
DIXON          FAIR      68  41  37 CALM      30.06S
RAWLINS        CLEAR     70  31  23 SW8       30.03R
SARATOGA       FAIR      64  36  34 SW8       30.07S
LARAMIE        CLEAR     64  33  31 W8        30.09R
CHEYENNE       PTCLDY    68  41  37 SW7       30.02R
TORRINGTON     CLEAR     70  47  43 SE7       29.84S
PINE BLUFFS    FAIR      70  43  37 CALM      29.96R

$$



USA.gov is the U.S. government's official web portal to all federal, state and local government web resources and services.